[[{"header":{"parameterUnit":"m.s-1","parameterCategory":1,"la1":30.2991,"la2":30.254,"lo1":-89.0895,"lo2":-89.0444,"dy":0.0017,"dx":0.0017,"nx":28,"ny":28,"refTime":"2024-09-01T09:00:00:Z","depth":0,"parameterNumber":2,"parameterNumberName":"U-component_of_WINDS"},"data":[0,0,0,0,0,0,0,0,0,0,0,0,0,0,0,0,0,0,0,0,0,0,0,0,0,0,0,0,0,0,0,0,0,0,0,0,0,0,0,0,0,0,0,0,0,0,0,0,0,0,0,0,0,0,0,0,0,0,-3.5568,-3.5567,0,-3.5485,-3.5484,-3.5483,-3.5357,-3.5355,-3.5352,-3.535,-3.5269,-3.5269,-3.5269,0,0,0,0,0,0,0,0,0,0,0,0,0,-3.5621,-3.562,-3.5568,-3.5567,-3.5566,-3.5485,-3.5484,-3.5483,-3.5357,-3.5354,-3.5352,-3.5349,-3.5269,-3.5269,-3.5269,0,0,0,0,0,0,0,0,0,0,0,0,0,-3.5574,-3.562,-3.5568,-3.5493,-3.5486,-3.5485,-3.5484,-3.5482,-3.5358,-3.5354,-3.5351,-3.5348,-3.5269,-3.5269,-3.5269,-3.5335,0,0,-3.5268,-3.5268,0,0,0,0,0,0,0,0,-3.5577,-3.5572,-3.5505,-3.5498,-3.549,-3.5428,-3.5472,-3.5433,-3.5359,-3.5406,-3.535,-3.5346,-3.5325,-3.532,-3.5312,-3.5332,-3.5328,-3.5268,-3.5268,-3.5268,-3.5268,0,0,0,0,0,0,0,-3.558,-3.5575,-3.5535,-3.5504,-3.5495,-3.5465,-3.5455,-3.5464,-3.5386,-3.5402,-3.5393,-3.5384,-3.532,-3.5312,-3.5309,-3.5327,-3.5268,-3.5268,-3.5268,-3.5268,-3.54,-3.5403,0,0,0,0,0,0,-3.5594,-3.5578,-3.5537,-3.5532,-3.5526,-3.5467,-3.5455,-3.5451,-3.5385,-3.5372,-3.5387,-3.5379,-3.5314,-3.5309,-3.5305,-3.5381,-3.5268,-3.5268,-3.5268,-3.5396,-3.54,-3.5404,0,0,0,0,0,0,-3.5596,-3.5591,-3.5541,-3.5553,-3.5544,-3.5469,-3.5466,-3.5451,-3.5443,-3.5374,-3.536,-3.5394,-3.5311,-3.5306,-3.5329,-3.5376,-3.5268,-3.5268,-3.5392,-3.5397,-3.5402,-3.5531,0,0,0,0,0,0,-3.5598,-3.5593,-3.5616,-3.5554,-3.5544,-3.5565,-3.5469,-3.5452,-3.5443,-3.5431,-3.5376,-3.5364,-3.5308,-3.533,-3.5329,-3.5374,-3.5268,-3.5387,-3.5394,-3.5401,-3.5523,-3.554,-3.5556,0,0,0,0,0,-3.56,-3.5656,-3.5618,-3.5614,-3.5572,-3.5568,-3.5562,-3.5496,-3.5447,-3.5471,-3.5427,-3.5366,-3.5371,-3.5333,-3.5331,-3.5377,-3.5384,-3.5392,-3.54,-3.5515,-3.5537,-3.5555,0,0,0,0,0,0,-3.5727,-3.5647,-3.5604,-3.5641,-3.5613,-3.5547,-3.5575,-3.5521,-3.5506,-3.5495,-3.5414,-3.5403,-3.5438,-3.5409,-3.5369,-3.5439,-3.5368,-3.5376,-3.5457,-3.5477,-3.5493,-3.55,-3.5268,0,0,0,0,0,-3.5759,-3.5761,-3.5692,-3.5732,-3.572,-3.565,-3.5646,-3.5597,-3.5564,-3.5552,-3.5509,-3.5481,-3.5476,-3.5474,-3.5466,-3.5518,-3.5505,-3.5548,-3.5565,-3.5579,-3.5587,-3.5614,-3.5633,-3.5431,-3.5431,-3.543,0,0,-3.5826,-3.5782,-3.5789,-3.5756,-3.5728,-3.5734,-3.5641,-3.565,-3.5654,-3.5553,-3.5573,-3.5541,-3.5504,-3.5543,-3.5557,-3.552,-3.564,-3.5589,-3.5601,-3.5601,-3.5624,-3.5644,-3.5661,-3.5436,-3.5435,-3.5434,0,0,-3.5951,-3.5918,-3.5948,-3.5922,-3.588,-3.5834,-3.5842,-3.5784,-3.5759,-3.5777,-3.5702,-3.5706,-3.5699,-3.5676,-3.5664,-3.5782,-3.5726,-3.5782,-3.5869,-3.5896,-3.5912,-3.5926,-3.597,-3.5987,-3.579,-3.579,-3.579,0,-3.604,-3.6044,-3.5971,-3.5986,-3.5975,-3.5883,-3.5914,-3.5892,-3.5851,-3.5846,-3.5804,-3.5795,-3.5763,-3.5796,-3.5825,-3.5817,-3.5825,-3.5788,-3.5916,-3.5929,-3.5941,-3.5982,-3.5998,-3.5797,-3.5797,-3.5796,-3.5795,0,-3.6156,-3.6161,-3.6191,-3.6153,-3.6144,-3.6168,-3.6099,-3.61,-3.6053,-3.6011,-3.6033,-3.5991,-3.5974,-3.5978,-3.5932,-3.6005,-3.5983,-3.593,-3.5857,-3.5968,-3.6006,-3.6021,-3.5808,-3.5805,-3.5803,-3.5801,0,0,-3.6359,-3.628,-3.6293,-3.6275,-3.6223,-3.6226,-3.6245,-3.6227,-3.6231,-3.6205,-3.6221,-3.6218,-3.6169,-3.6155,-3.6105,-3.6129,-3.6228,-3.6073,-3.6071,-3.6105,-3.6309,-3.635,-3.637,-3.619,-3.6193,-3.6195,-3.6312,0,-3.6475,-3.6503,-3.6438,-3.6483,-3.6488,-3.6401,-3.6419,-3.639,-3.6352,-3.6351,-3.631,-3.6309,-3.6243,-3.6235,-3.6254,-3.6212,-3.6268,-3.6202,-3.6206,-3.6207,-3.6219,-3.6389,-3.6432,-3.6545,-3.6326,-3.6329,-3.633,0,-3.6613,-3.6595,-3.6641,-3.6587,-3.6587,-3.6603,-3.6583,-3.6582,-3.6548,-3.6519,-3.6505,-3.6447,-3.6464,-3.6394,-3.6418,-3.6375,-3.6372,-3.6352,-3.6355,-3.6353,-3.6277,-3.6394,-3.6579,-3.6597,-3.6352,-3.635,-3.6349,0,-3.6759,-3.6746,-3.6771,-3.6758,-3.6696,-3.6711,-3.6686,-3.6648,-3.6642,-3.6624,-3.662,-3.6605,-3.6598,-3.6588,-3.6529,-3.6482,-3.6561,-3.6485,-3.6539,-3.6541,-3.656,-3.656,-3.675,-3.6556,-3.6556,-3.6556,-3.6556,0,-3.6896,-3.6928,-3.6836,-3.6852,-3.6886,-3.6812,-3.6847,-3.6814,-3.6781,-3.6791,-3.6715,-3.6726,-3.6645,-3.6648,-3.6601,-3.663,-3.6626,-3.6605,-3.6592,-3.6612,-3.6615,-3.6611,-3.6602,-3.656,-3.6559,-3.6558,-3.6558,0,-3.7065,-3.7004,-3.7027,-3.6966,-3.6952,-3.698,-3.6928,-3.6942,-3.6899,-3.6912,-3.6911,-3.6845,-3.6844,-3.6783,-3.6769,-3.6738,-3.6787,-3.6759,-3.6799,-3.679,-3.6849,-3.6845,-3.7043,-3.7066,-3.6857,-3.6859,-3.6861,0,-3.7157,-3.7179,-3.7121,-3.7121,-3.71,-3.7101,-3.7095,-3.7023,-3.702,-3.6984,-3.7002,-3.6995,-3.6985,-3.6988,-3.694,-3.693,-3.6902,-3.6973,-3.6901,-3.6921,-3.6906,-3.6906,-3.6909,-3.6989,-3.6991,-3.6993,-3.6995,0,-3.7327,-3.7296,-3.7289,-3.7273,-3.7267,-3.7251,-3.723,-3.7235,-3.7156,-3.7157,-3.7154,-3.7147,-3.7134,-3.7128,-3.7109,-3.7085,-3.7029,-3.7018,-3.703,-3.7052,-3.7074,-3.7065,-3.6842,-3.7014,-3.7012,-3.7011,-3.701,-3.7009,-3.7461,-3.7478,-3.744,-3.7435,-3.7412,-3.7394,-3.7404,-3.7363,-3.7359,-3.7342,-3.73,-3.7306,-3.7273,-3.7241,-3.7222,-3.7226,-3.7191,-3.7209,-3.7213,-3.7219,-3.7231,-3.7073,-3.7222,-3.7222,-3.7221,-3.7221,-3.722,0,-3.7629,-3.7601,-3.7597,-3.757,-3.7567,-3.7512,-3.7486,-3.7488,-3.7493,-3.7467,-3.7459,-3.7458,-3.7452,-3.7404,-3.7393,-3.7406,-3.738,-3.7406,-3.7405,-3.7401,-3.7262,-3.7253,-3.7428,-3.7428,-3.7428,-3.7428,-3.7428,-3.7428,-3.7716,-3.7742,-3.7707,-3.7722,-3.7692,-3.7696,-3.7687,-3.7671,-3.7649,-3.7651,-3.7646,-3.7614,-3.7579,-3.7566,-3.756,-3.7545,-3.7546,-3.7582,-3.7559,-3.7431,-3.7411,-3.7392,-3.7383,-3.7582,-3.7582,-3.7698,-3.7699,-3.77]},{"header":{"parameterUnit":"m.s-1","parameterCategory":1,"la1":30.2991,"la2":30.254,"lo1":-89.0895,"lo2":-89.0444,"dy":0.0017,"dx":0.0017,"nx":28,"ny":28,"refTime":"2024-09-01T09:00:00:Z","depth":0,"parameterNumber":3,"parameterNumberName":"V-component_of_WINDS"},"data":[0,0,0,0,0,0,0,0,0,0,0,0,0,0,0,0,0,0,0,0,0,0,0,0,0,0,0,0,0,0,0,0,0,0,0,0,0,0,0,0,0,0,0,0,0,0,0,0,0,0,0,0,0,0,0,0,0,0,-0.9125,-0.9124,0,-0.9098,-0.9098,-0.9098,-0.9068,-0.9068,-0.9068,-0.9067,-0.9041,-0.904,-0.904,0,0,0,0,0,0,0,0,0,0,0,0,0,-0.9149,-0.9148,-0.9125,-0.9124,-0.9124,-0.9098,-0.9098,-0.9098,-0.9069,-0.9068,-0.9068,-0.9067,-0.9041,-0.904,-0.904,0,0,0,0,0,0,0,0,0,0,0,0,0,-0.9132,-0.9148,-0.9125,-0.9106,-0.9104,-0.9098,-0.9098,-0.9097,-0.9069,-0.9068,-0.9067,-0.9067,-0.9041,-0.904,-0.904,-0.905,0,0,-0.9038,-0.9038,0,0,0,0,0,0,0,0,-0.9133,-0.9131,-0.9109,-0.9108,-0.9105,-0.9086,-0.9097,-0.9082,-0.9069,-0.9082,-0.9067,-0.9066,-0.9056,-0.9054,-0.9051,-0.9049,-0.9047,-0.9038,-0.9038,-0.9038,-0.9038,0,0,0,0,0,0,0,-0.9134,-0.9132,-0.9114,-0.9109,-0.9107,-0.9099,-0.9096,-0.9094,-0.9073,-0.9081,-0.9079,-0.9076,-0.9055,-0.9051,-0.905,-0.9047,-0.9038,-0.9038,-0.9038,-0.9038,-0.905,-0.905,0,0,0,0,0,0,-0.9138,-0.9133,-0.9115,-0.9113,-0.9118,-0.9099,-0.9096,-0.9093,-0.9073,-0.9069,-0.9077,-0.9075,-0.9053,-0.9051,-0.9049,-0.9058,-0.9038,-0.9037,-0.9037,-0.9049,-0.905,-0.9051,0,0,0,0,0,0,-0.9139,-0.9137,-0.9116,-0.9123,-0.9119,-0.9099,-0.9096,-0.9093,-0.9089,-0.907,-0.9066,-0.9077,-0.9052,-0.905,-0.9049,-0.9057,-0.9037,-0.9037,-0.9048,-0.9049,-0.905,-0.9078,0,0,0,0,0,0,-0.9139,-0.9137,-0.9141,-0.9123,-0.9119,-0.9117,-0.9097,-0.9093,-0.9088,-0.9086,-0.9069,-0.9066,-0.9051,-0.905,-0.9049,-0.9056,-0.9036,-0.9048,-0.9049,-0.905,-0.9076,-0.908,-0.9083,0,0,0,0,0,-0.914,-0.915,-0.9141,-0.9139,-0.9124,-0.9118,-0.9116,-0.9099,-0.9089,-0.9093,-0.908,-0.9066,-0.9056,-0.9051,-0.9049,-0.9056,-0.9047,-0.9049,-0.905,-0.9075,-0.9079,-0.9083,0,0,0,0,0,0,-0.917,-0.9148,-0.9138,-0.9142,-0.9132,-0.9113,-0.9117,-0.9104,-0.9097,-0.9095,-0.9074,-0.9071,-0.9073,-0.9064,-0.9058,-0.9064,-0.905,-0.9051,-0.9069,-0.9073,-0.9076,-0.9078,-0.9036,0,0,0,0,0,-0.9177,-0.9175,-0.9155,-0.916,-0.9156,-0.9137,-0.9134,-0.9122,-0.9111,-0.9107,-0.9094,-0.9084,-0.9078,-0.9075,-0.9069,-0.9075,-0.907,-0.9079,-0.9082,-0.9085,-0.9086,-0.9087,-0.909,-0.9055,-0.9055,-0.9055,0,0,-0.9192,-0.9179,-0.9179,-0.9166,-0.9157,-0.9154,-0.9134,-0.9132,-0.913,-0.9106,-0.9105,-0.9096,-0.9083,-0.9085,-0.9085,-0.9078,-0.9094,-0.9086,-0.9089,-0.9088,-0.9089,-0.9092,-0.9095,-0.9056,-0.9056,-0.9056,0,0,-0.9217,-0.9207,-0.921,-0.9201,-0.9188,-0.9175,-0.9176,-0.9158,-0.9151,-0.9149,-0.9131,-0.9128,-0.9119,-0.911,-0.9104,-0.9124,-0.9111,-0.9123,-0.914,-0.9141,-0.9144,-0.9146,-0.9153,-0.9155,-0.9124,-0.9124,-0.9124,0,-0.9237,-0.9232,-0.9214,-0.9213,-0.9207,-0.9185,-0.9188,-0.918,-0.9165,-0.9162,-0.9153,-0.9141,-0.9131,-0.913,-0.9135,-0.9131,-0.9131,-0.9125,-0.9145,-0.9147,-0.9149,-0.9155,-0.9157,-0.9126,-0.9126,-0.9126,-0.9125,0,-0.9257,-0.9254,-0.9258,-0.9244,-0.9238,-0.9239,-0.922,-0.9217,-0.9205,-0.9193,-0.9191,-0.9178,-0.9168,-0.9167,-0.9156,-0.9165,-0.916,-0.9149,-0.9134,-0.9154,-0.9159,-0.9161,-0.9128,-0.9127,-0.9127,-0.9127,0,0,-0.9301,-0.9275,-0.9277,-0.927,-0.9252,-0.9249,-0.9249,-0.9239,-0.9236,-0.9226,-0.9225,-0.9217,-0.9206,-0.9199,-0.9186,-0.9188,-0.9203,-0.9176,-0.9175,-0.9181,-0.9211,-0.922,-0.9223,-0.9194,-0.9194,-0.9195,-0.9212,0,-0.9323,-0.932,-0.9303,-0.9306,-0.9302,-0.928,-0.9279,-0.9268,-0.9257,-0.9251,-0.9238,-0.9233,-0.9219,-0.9215,-0.9215,-0.9201,-0.9209,-0.92,-0.9192,-0.9192,-0.9196,-0.9225,-0.9235,-0.9252,-0.9214,-0.9214,-0.9214,0,-0.9348,-0.9339,-0.9341,-0.9322,-0.932,-0.932,-0.9309,-0.9304,-0.9291,-0.9282,-0.9274,-0.9259,-0.9256,-0.9243,-0.9238,-0.9232,-0.9228,-0.922,-0.9221,-0.9219,-0.9204,-0.9225,-0.9257,-0.9259,-0.9218,-0.9217,-0.9217,0,-0.9379,-0.9368,-0.9367,-0.9362,-0.934,-0.934,-0.9331,-0.9317,-0.9311,-0.9301,-0.9298,-0.9288,-0.9282,-0.9274,-0.9257,-0.9249,-0.9254,-0.9239,-0.9246,-0.9247,-0.9249,-0.9249,-0.928,-0.9246,-0.9246,-0.9246,-0.9246,0,-0.9406,-0.9408,-0.9381,-0.938,-0.9381,-0.9361,-0.9362,-0.9351,-0.9338,-0.9335,-0.9316,-0.9313,-0.929,-0.9284,-0.927,-0.9268,-0.9266,-0.9258,-0.9254,-0.926,-0.9261,-0.9257,-0.9255,-0.9247,-0.9247,-0.9246,-0.9246,0,-0.9441,-0.9423,-0.9421,-0.94,-0.9395,-0.9396,-0.9378,-0.9377,-0.9363,-0.9359,-0.9357,-0.9336,-0.9328,-0.931,-0.9297,-0.9287,-0.9289,-0.9282,-0.9293,-0.9291,-0.9299,-0.9298,-0.9329,-0.9332,-0.9296,-0.9296,-0.9297,0,-0.9459,-0.946,-0.9439,-0.9435,-0.9426,-0.9421,-0.9415,-0.9394,-0.9389,-0.9373,-0.9373,-0.9363,-0.9354,-0.9343,-0.9326,-0.9316,-0.9309,-0.932,-0.9307,-0.9312,-0.9308,-0.9308,-0.9308,-0.9323,-0.9324,-0.9324,-0.9324,0,-0.9492,-0.9483,-0.9475,-0.9464,-0.9458,-0.9448,-0.9438,-0.9436,-0.9412,-0.9407,-0.9399,-0.9392,-0.9378,-0.9369,-0.9356,-0.9346,-0.9331,-0.9328,-0.9329,-0.9335,-0.9341,-0.9337,-0.9301,-0.9328,-0.9327,-0.9327,-0.9327,-0.9327,-0.9519,-0.9518,-0.9503,-0.9495,-0.9484,-0.9474,-0.9471,-0.9457,-0.945,-0.9437,-0.9425,-0.9418,-0.9402,-0.9383,-0.9374,-0.9367,-0.936,-0.9362,-0.9362,-0.9363,-0.9365,-0.9342,-0.9365,-0.9365,-0.9365,-0.9365,-0.9365,0,-0.955,-0.9539,-0.9532,-0.9517,-0.9511,-0.9497,-0.9484,-0.9479,-0.9473,-0.946,-0.9451,-0.9441,-0.9431,-0.9413,-0.9402,-0.94,-0.9392,-0.9397,-0.9397,-0.9395,-0.9372,-0.9372,-0.9403,-0.9403,-0.9403,-0.9403,-0.9403,-0.9403,-0.9566,-0.9564,-0.9552,-0.9544,-0.9533,-0.9525,-0.9519,-0.9509,-0.9499,-0.9488,-0.948,-0.9468,-0.9453,-0.944,-0.943,-0.9424,-0.9421,-0.9428,-0.9421,-0.94,-0.9396,-0.9393,-0.9393,-0.9427,-0.9427,-0.9443,-0.9443,-0.9444]}]]